ITUPSAT1 (35935 NORAD) Tracking and Keplerian Element Data

This shows tracking and keplerian element data for the satellite.

Feedback or suggestion? Click here.




ElementValue
Catalog35935
NameITUPSAT1
Epoch Orbit58841
Epoch Day298.07900439
Epoch Year2020
RAAN126.5699
Inclination98.6196
Eccentricity0.0009163
Argument of Perigee103.736
Mean Anonmoly256.4857
Mean Motion14.55648667
Decay Rate1.06E-06
L11 35935U 09051E 20298.07900439 .00000106 00000-0 35599-4 0 9995
L22 35935 98.6196 126.5699 0009163 103.7360 256.4857 14.55648667588418

Live tracking and technical data element details for ITUPSAT1 (NORAD 35935). ITUPSAT1 can be tracked NOW for your location showing map with azimuth and elevation plus other details from your city location.

Track the satellite on the map from your city or location and see movement details for azimuth, elevation, latitude, longitude, range, height, and movement on the map or in text.







IsCatalogInMostPopularTable: catalog: 35935, numindb: 244
Update: records affected: 1



GetName: 35935 ITUPSAT1

Hit Count: updated at: Sun, 25 Oct 2020 08:07:56 GMT